FW4179 Weather Reports


time (UTC)temp
C
wind
direction
speed
KPH
gust
KPH
rain 1hr
cm
rain 24hr
cm
rain mn
cm
humidity
%
barometer
mb
20260506224549 12 306 3.2 6.4 0.00 0.61 0.61 98 1013.9
20260506223047 12 0 0.0 4.8 0.00 0.61 0.61 97 1014.5
20260506221556 12 0 3.2 6.4 0.00 0.61 0.61 97 1014.3
20260506220059 12 0 0.0 6.4 0.00 0.61 0.61 97 1013.9
20260506214551 13 336 1.6 8.0 0.00 0.61 0.61 97 1014.1
20260506213051 13 0 0.0 4.8 0.00 0.61 0.61 97 1013.2
20260506211601 13 315 0.0 4.8 0.00 0.61 0.61 97 1013.1
20260506210047 13 315 1.6 4.8 0.00 0.61 0.61 97 1013.4
20260506204548 13 338 1.6 4.8 0.00 0.61 0.61 97 1013.0
20260506203047 13 0 0.0 8.0 0.00 0.61 0.61 97 1013.3
20260506201545 14 321 1.6 4.8 0.00 0.61 0.61 97 1012.7
20260506200047 15 321 0.0 6.4 0.00 0.61 0.61 98 1012.9
20260506194554 15 324 1.6 4.8 0.00 0.61 0.61 97 1013.2
20260506193048 15 324 1.6 8.0 0.00 0.61 0.61 98 1012.9
20260506191548 16 323 4.8 8.0 0.00 0.61 0.61 97 1013.5
20260506190047 16 298 1.6 6.4 0.00 0.61 0.61 98 1013.5
20260506184556 16 286 1.6 6.4 0.00 0.61 0.61 97 1013.3
20260506183053 16 0 1.6 4.8 0.00 0.61 0.61 97 1013.1
20260506181546 16 0 0.0 3.2 0.00 0.61 0.61 97 1012.7
20260506180047 16 90 0.0 0.0 0.00 0.61 0.61 98 1012.7
20260506174549 16 0 0.0 0.0 0.00 0.61 0.61 98 1013.1
20260506173104 16 325 3.2 8.0 0.00 0.61 0.61 98 1013.4
20260506171552 16 0 0.0 8.0 0.03 0.61 0.61 98 1013.4
20260506164558 16 267 1.6 6.4 0.03 0.61 0.61 99 1013.1
20260506163045 16 318 4.8 8.0 0.03 0.61 0.61 97 1013.2
20260506161548 16 325 4.8 11.3 0.03 0.58 0.58 97 1013.3
20260506160059 17 309 4.8 14.5 0.03 0.58 0.58 94 1012.9
20260506154555 19 226 3.2 8.0 0.03 0.58 0.58 97 1012.5
20260506153047 19 0 3.2 8.0 0.05 0.58 0.58 98 1012.2
20260506151545 18 244 1.6 11.3 0.03 0.56 0.56 99 1011.9
20260506150053 18 228 1.6 16.1 0.05 0.56 0.56 99 1011.9
20260506144547 17 164 6.4 12.9 0.08 0.56 0.56 99 1011.2
20260506143049 17 178 1.6 11.3 0.05 0.53 0.53 99 1011.4
20260506141603 17 163 3.2 11.3 0.05 0.53 0.53 99 1011.6
20260506140048 17 134 4.8 11.3 0.05 0.51 0.51 99 1011.1
20260506134548 17 259 3.2 11.3 0.03 0.48 0.48 98 1012.5
20260506133041 17 234 3.2 8.0 0.05 0.48 0.48 98 1012.7
20260506131547 17 233 4.8 8.0 0.05 0.48 0.48 98 1012.3
20260506130047 17 207 1.6 6.4 0.05 0.46 0.46 98 1011.6
20260506124546 17 0 3.2 11.3 0.08 0.46 0.46 98 1011.3
20260506123046 17 217 4.8 11.3 0.10 0.43 0.43 98 1011.7
20260506121553 17 219 3.2 8.0 0.13 0.43 0.43 98 1010.8
20260506120118 17 225 3.2 30.6 0.15 0.41 0.41 98 1010.6
20260506114547 17 0 3.2 14.5 0.13 0.36 0.36 98 1010.1
20260506113046 17 131 3.2 11.3 0.15 0.33 0.33 98 1010.5
20260506111547 17 243 3.2 8.0 0.18 0.30 0.30 98 1010.8
20260506110056 17 225 1.6 9.7 0.18 0.25 0.25 97 1010.4
20260506104550 17 223 3.2 12.9 0.20 0.23 0.23 97 1010.4
20260506103053 17 0 0.0 4.8 0.18 0.18 0.18 96 1010.2
20260506101556 17 0 0.0 4.8 0.13 0.13 0.13 95 1009.8
20260506100043 17 239 3.2 11.3 0.08 0.08 0.08 93 1010.1
20260506094549 18 222 4.8 12.9 0.03 0.03 0.03 89 1009.6
20260506093050 20 254 4.8 14.5 0.00 0.00 0.00 82 1009.5
20260506091545 20 202 6.4 17.7 0.00 0.00 0.00 79 1009.2
20260506090048 20 216 6.4 17.7 0.00 0.00 0.00 78 1008.8
20260506084548 21 252 4.8 20.9 0.00 0.00 0.00 74 1008.7
20260506083049 21 227 6.4 14.5 0.00 0.00 0.00 73 1008.5
20260506081550 21 215 6.4 19.3 0.00 0.00 0.00 72 1008.7
20260506073054 20 201 6.4 14.5 0.00 0.00 0.00 71 1008.3
20260506071553 20 200 4.8 14.5 0.00 0.00 0.00 70 1008.2
20260506070107 20 179 3.2 16.1 0.00 0.00 0.00 70 1008.6
20260506061548 20 0 3.2 17.7 0.00 0.00 0.00 68 1009.2
20260506044557 20 152 6.4 19.3 0.00 0.00 0.00 68 1009.8
20260506043048 20 164 6.4 16.1 0.00 0.00 0.00 68 1010.1
20260506041552 20 202 4.8 22.5 0.00 0.00 0.00 68 1010.2
20260506040048 20 155 4.8 19.3 0.00 0.00 0.00 68 1010.1
20260506034545 20 162 6.4 20.9 0.00 0.00 0.00 68 1010.3
20260506033051 20 145 1.6 12.9 0.00 0.00 0.00 68 1010.4
20260506031556 20 148 3.2 14.5 0.00 0.00 0.00 67 1010.4
20260506030105 20 137 3.2 12.9 0.00 0.00 0.00 66 1010.4
20260506024549 20 134 1.6 14.5 0.00 0.00 0.00 65 1010.4
20260506023049 20 155 6.4 16.1 0.00 0.00 0.00 64 1010.5
20260506021550 20 144 3.2 16.1 0.00 0.00 0.00 63 1010.5
20260506020046 20 181 3.2 16.1 0.00 0.00 0.00 62 1010.5
20260506014543 20 0 1.6 14.5 0.00 0.00 0.00 61 1010.5
20260506013046 20 142 3.2 16.1 0.00 0.00 0.00 60 1010.3
20260506011554 20 178 1.6 16.1 0.00 0.00 0.00 59 1010.1
20260506010054 20 153 4.8 12.9 0.00 0.00 0.00 58 1010.0
20260506004620 20 178 4.8 16.1 0.00 0.00 0.00 57 1009.9
20260506003045 20 178 8.0 19.3 0.00 0.00 0.00 57 1010.1
20260506001546 20 152 3.2 16.1 0.00 0.00 0.00 56 1010.3
20260506000054 20 151 4.8 16.1 0.00 0.00 0.00 54 1010.3
20260505234611 20 158 4.8 16.1 0.00 0.00 0.00 54 1010.3
20260505233045 21 160 4.8 27.4 0.00 0.00 0.00 54 1010.2
20260505231550 21 166 11.3 25.7 0.00 0.00 0.00 54 1009.7